"2009-05-20 00:00:00",901754,6.459,309.9,3.784,0.527,21.04,110.0621,25.05,26.08,17.13,0,111.2,13.1,25.89,271.9
"2009-05-20 00:00:30",901755,7.288,308.5,2.89,0.534,21.07,110.063,25.06,26.08,17.05,0,111.2,13.1,25.90,270.5
"2009-05-20 00:01:00",901756,7.523,315.1,2.849,0.533,21.05,110.06,25.05,26.06,17.46,0,111.2,13.11,25.89,277.1
"2009-05-20 00:01:30",901757,7.697,312.6,2.464,0.128,21.11,110.0462,25.01,26.06,16.83,0,111.2,13.11,25.85,274.6
"2009-05-20 00:02:00",901758,7.064,310.7,3.3,0.489,21.12,110.037,24.99,26.05,16.77,0,111.2,13.11,25.83,272.7
"2009-05-20 00:02:30",901759,6.241,306.6,2.233,0.21,21.11,110.037,24.99,26.02,17,0,111.2,13.12,25.83,268.6
"2009-05-20 00:03:00",901760,5.954,308.3,1.967,0.19,21.13,110.0309,24.97,26.01,17.26,0,111.2,13.12,25.81,270.3
"2009-05-20 00:03:30",901761,5.6,307.6,2.681,0.35,21.17,110.0095,24.92,25.99,16.91,0,111.2,13.12,25.76,269.6
"2009-05-20 00:04:00",901762,5.091,295.2,4.239,0.348,21.13,109.998,24.89,25.96,17.58,0,111.2,13.12,25.73,257.2
"2009-05-20 00:04:30",901763,5.162,293.7,4.189,0.254,21.12,109.9795,24.84,25.91,17.84,0,111.2,13.12,25.68,255.7
"2009-05-20 00:05:00",901764,4.723,300,3.728,0.259,21.06,109.959,24.79,25.87,18.3,0,111.2,13.12,25.63,262.0
"2009-05-20 00:05:30",901765,5.758,305.2,4.621,0.55,20.9,109.9208,24.69,25.79,18.74,0,111.2,13.12,25.53,267.2
"2009-05-20 00:06:00",901766,6.635,305.9,4.583,0.768,20.76,109.8816,24.59,25.7,19.03,0,111.2,13.12,25.43,267.9
"2009-05-20 00:06:30",901767,8.37,308.9,3.422,0.271,20.61,109.8723,24.57,25.66,18.98,0,111.2,13.12,25.40,270.9
"2009-05-20 00:07:00",901768,8.55,313.5,6.161,0.827,20.6,109.8686,24.56,25.63,18.88,0,111.2,13.12,25.39,275.5
"2009-05-20 00:07:30",901769,8.1,314.1,5.137,0.389,20.57,109.8686,24.56,25.62,18.99,0,111.2,13.12,25.39,276.1
"2009-05-20 00:08:00",901770,7.811,301,4.283,0.593,20.53,109.8622,24.54,25.61,19.04,0,111.2,13.12,25.38,263.0
"2009-05-20 00:08:30",901771,8.15,302.7,4.463,0.907,20.53,109.8412,24.49,25.61,18.9,0,111.2,13.12,25.32,264.7
"2009-05-20 00:09:00",901772,8.47,303,1.305,0.435,20.61,109.835,24.47,25.59,18.48,0,111.2,13.12,25.31,265.0
"2009-05-20 00:09:30",901773,8.45,308,4.191,0.417,20.54,109.8237,24.44,25.55,18.47,0,111.2,13.12,25.28,270.0
"2009-05-20 00:10:00",901774,7.124,311.5,6.151,0.605,20.53,109.8055,24.39,25.54,19.16,0,111.2,13.12,25.23,273.5
"2009-05-20 00:10:30",901775,6.015,309.7,8.25,0.469,20.53,109.8037,24.39,25.5,19.28,0,111.2,13.12,25.23,271.7
"2009-05-20 00:11:00",901776,6.11,308.1,2.761,0.525,20.53,109.7884,24.35,25.47,19.45,0,111.2,13.12,25.19,270.1
"2009-05-20 00:11:30",901777,6.001,306.2,4.447,0.579,20.52,109.7696,24.3,25.43,19.46,0,111.2,13.12,25.14,268.2
"2009-05-20 00:12:00",901778,7.09,302.5,3.081,0.485,20.53,109.7604,24.28,25.37,19.38,0,111.2,13.13,25.12,264.5
"2009-05-20 00:12:30",901779,7.139,303.7,4.443,0.647,20.53,109.7465,24.24,25.35,19.4,0,111.2,13.13,25.08,265.7
"2009-05-20 00:13:00",901780,7.593,303.9,3.332,0.513,20.54,109.7291,24.2,25.29,19.38,0,111.2,13.12,25.03,265.9
"2009-05-20 00:13:30",901781,7.358,300.5,2.956,0.236,20.53,109.7176,24.17,25.27,19.78,0,111.2,13.12,25.01,262.5
"2009-05-20 00:14:00",901782,7.285,314.3,5.043,0.495,20.54,109.6984,24.12,25.24,19.96,0,111.1,13.12,24.96,276.3
"2009-05-20 00:14:30",901783,7.043,310.3,3.554,0.408,20.51,109.6765,24.06,25.19,20.13,0,111.1,13.12,24.90,272.3
"2009-05-20 00:15:00",901784,7.337,305.5,2.677,0.791,20.64,109.6601,24.02,25.12,20.26,0,111.1,13.12,24.86,267.5
"2009-05-20 00:15:30",901785,6.992,306.4,2.816,0.433,20.62,109.6357,23.96,25.07,20.1,0,111.1,13.12,24.79,268.4
"2009-05-20 00:16:00",901786,7.548,302.3,2.941,0.491,20.91,109.6291,23.94,25.03,20.2,0,111.1,13.12,24.78,264.3
"2009-05-20 00:16:30",901787,8.02,305.5,4.387,0.472,20.85,109.6061,23.88,25,20.35,0,111.1,13.12,24.72,267.5
"2009-05-20 00:17:00",901788,6.943,311.4,1.863,0.544,20.87,109.6016,23.87,24.97,20.4,0,111.1,13.12,24.71,273.4
"2009-05-20 00:17:30",901789,7.04,309.3,3.465,0.522,20.83,109.5833,23.82,24.94,20.56,0,111.1,13.12,24.66,271.3
"2009-05-20 00:18:00",901790,6.417,304.9,5.083,0.506,20.69,109.5687,23.79,24.91,20.73,0,111.1,13.13,24.62,266.9
"2009-05-20 00:18:30",901791,8.06,307.6,2.421,0.443,20.57,109.5583,23.76,24.87,20.56,0,111.1,13.13,24.59,269.6
"2009-05-20 00:19:00",901792,8.07,304.5,3.18,0.324,20.55,109.5376,23.71,24.85,20.49,0,111.1,13.13,24.54,266.5
"2009-05-20 00:19:30",901793,7.844,307.5,2.277,0.509,21.08,109.535,23.7,24.82,20.71,0,111.1,13.14,24.53,269.5
"2009-05-20 00:20:00",901794,7.21,306.3,4.88,0.427,20.97,109.514,23.65,24.78,20.81,0,111.1,13.14,24.48,268.3
"2009-05-20 00:20:30",901795,8.14,306,2.683,0.519,20.37,109.5013,23.61,24.76,20.98,0,111.1,13.14,24.45,268.0
"2009-05-20 00:21:00",901796,7.169,303.2,4.324,0.588,20.36,109.4955,23.6,24.74,21.1,0,111.1,13.14,24.43,265.2
"2009-05-20 00:21:30",901797,6.293,306.5,5.358,0.392,20.38,109.4734,23.54,24.7,21.24,0,111.1,13.14,24.38,268.5
"2009-05-20 00:22:00",901798,7.095,309.2,2.102,0.574,20.35,109.4586,23.5,24.66,21.45,0,111.1,13.14,24.34,271.2
"2009-05-20 00:22:30",901799,6.068,290.4,7.664,0.867,20.49,109.4451,23.47,24.62,21.5,0,111.1,13.14,24.30,252.4
"2009-05-20 00:23:00",901800,5.589,300.3,5.484,0.307,20.44,109.4478,23.48,24.59,21.58,0,111.1,13.14,24.31,262.3
"2009-05-20 00:23:30",901801,5.515,299.6,5.132,0.381,20.58,109.4309,23.43,24.54,21.67,0,111.1,13.14,24.27,261.6
"2009-05-20 00:24:00",901802,5.139,297.2,11.59,0.354,20.66,109.4046,23.36,24.49,21.89,0,111.1,13.14,24.20,259.2
"2009-05-20 00:24:30",901803,5.57,288.9,3.552,0.553,20.54,109.3942,23.34,24.45,21.97,0,111.1,13.14,24.17,250.9
"2009-05-20 00:25:00",901804,5.301,296.9,5.189,0.37,20.51,109.3939,23.34,24.41,22.01,0,111.1,13.14,24.17,258.9
"2009-05-20 00:25:30",901805,4.605,283.7,6.529,0.231,20.56,109.3761,23.29,24.38,21.91,0,111.1,13.14,24.13,245.7
"2009-05-20 00:26:00",901806,5.304,283.8,6.944,0.589,20.53,109.3652,23.26,24.37,22.13,0,111.1,13.14,24.10,245.8
"2009-05-20 00:26:30",901807,7.308,283.2,5.117,0.523,20.52,109.3679,23.27,24.34,22.08,0,111.1,13.14,24.10,245.2
"2009-05-20 00:27:00",901808,6.094,276.8,5.575,0.709,20.67,109.3526,23.23,24.32,22.17,0,111.1,13.14,24.06,238.8
"2009-05-20 00:27:30",901809,7.386,288.3,5.57,1.628,20.61,109.3348,23.19,24.28,22.34,0,111.1,13.14,24.02,250.3
"2009-05-20 00:28:00",901810,9.36,296.1,2.79,0.281,20.38,109.3298,23.17,24.23,22.51,0,111.1,13.15,24.01,258.1
"2009-05-20 00:28:30",901811,9.47,293.7,3.474,0.243,20.74,109.3127,23.13,24.21,22.68,0,111.1,13.15,23.96,255.7
"2009-05-20 00:29:00",901812,9.3,293.3,2.052,0.127,20.67,109.3026,23.1,24.2,22.89,0,111.1,13.15,23.94,255.3
"2009-05-20 00:29:30",901813,9.7,289.9,2.716,0.192,20.83,109.3023,23.1,24.18,22.86,0,111.1,13.15,23.93,251.9
"2009-05-20 00:30:00",901814,9.37,289.1,1.893,0.212,18.7,109.2846,23.06,24.15,22.98,0,111.1,13.14,23.89,251.1
"2009-05-20 00:30:30",901815,8.68,283.4,1.991,0.377,20.92,109.2711,23.02,24.13,23.09,0,111.1,13.14,23.85,245.4
"2009-05-20 00:31:00",901816,8.19,288.4,4.021,0.452,20.38,109.2681,23.01,24.13,23.27,0,111.1,13.14,23.85,250.4
"2009-05-20 00:31:30",901817,8.32,286.1,3.951,0.642,18.65,109.249,22.97,24.09,23.39,0,111.1,13.14,23.80,248.1
"2009-05-20 00:32:00",901818,8.34,284.6,5.556,0.496,20.4,109.2352,22.93,24.05,23.56,0,111.1,13.14,23.76,246.6
"2009-05-20 00:32:30",901819,8.29,282.1,4.373,0.515,20.44,109.222,22.9,24.03,23.72,0,111,13.14,23.73,244.1
"2009-05-20 00:33:00",901820,8.86,283,5.25,0.512,21.79,109.2021,22.85,24,23.86,0,111,13.14,23.68,245.0
"2009-05-20 00:33:30",901821,9.48,272.2,2.943,0.887,20.71,109.1907,22.82,23.96,24.22,0,111,13.14,23.65,234.2
"2009-05-20 00:34:00",901822,8.91,278.4,4.561,1.043,-7.945,109.1786,22.78,23.94,24.48,0,111,13.14,23.62,240.4
"2009-05-20 00:34:30",901823,10.76,282.3,2.593,0.221,-51.09,109.1607,22.74,23.9,24.85,0,111,13.14,23.57,244.3
"2009-05-20 00:35:00",901824,9.92,275.4,3.266,0.75,7.527,109.1338,22.67,23.84,25.91,0,111,13.14,23.50,237.4
"2009-05-20 00:35:30",901825,9.45,272.7,2.997,0.767,20.77,109.0999,22.58,23.79,26.27,0,111,13.15,23.41,234.7
"2009-05-20 00:36:00",901826,9.29,274.5,2.222,0.341,-6.457,109.058,22.48,23.72,26.92,0,111,13.14,23.31,236.5
"2009-05-20 00:36:30",901827,9.38,266.7,5.979,0.682,-20.15,109.0109,22.35,23.65,27.45,0,111,13.15,23.18,228.7
"2009-05-20 00:37:00",901828,9.3,269.7,5.097,0.309,-44.33,108.9517,22.2,23.62,27.96,0,111,13.15,23.03,231.7
"2009-05-20 00:37:30",901829,10.83,278,7.464,1.515,4.379,108.8798,22.02,23.55,28.66,0,111,13.11,22.85,240.0
"2009-05-20 00:38:00",901830,12.82,291,8.17,1.463,25.4,108.8037,21.82,23.59,29.22,0,111,13.12,22.65,253.0
"2009-05-20 00:38:30",901831,10.28,279.3,16.28,2.058,24.31,108.7206,21.61,23.47,27.98,0,111,13.12,22.44,241.3
"2009-05-20 00:39:00",901832,7.31,284.7,8.82,1.192,24.46,108.6298,21.38,23.26,26.7,0,110.9,13.12,22.20,246.7
"2009-05-20 00:39:30",901833,7.331,299.7,4.602,1.552,24.07,108.557,21.19,22.89,25.55,0,111,13.12,22.01,261.7
"2009-05-20 00:40:00",901834,5.617,297.8,3.39,0.327,21.32,108.5066,21.06,22.7,26.68,0,111,13.16,21.89,259.8
"2009-05-20 00:40:30",901835,5.498,305.2,6.766,1.518,21.11,108.4639,20.95,22.56,27.72,0,111,13.16,21.78,267.2
"2009-05-20 00:41:00",901836,5.16,307.8,12.08,1.469,17.67,108.4358,20.88,22.4,27.21,0,110.9,13.16,21.70,269.8
"2009-05-20 00:41:30",901837,3.569,358.5,29.95,1.171,20.79,108.4306,20.86,22.29,27.51,0,110.9,13.16,21.69,320.5
"2009-05-20 00:42:00",901838,6.237,325.9,3.882,0.602,21.48,108.3994,20.78,22.2,28.09,0,110.9,13.17,21.61,287.9
"2009-05-20 00:42:30",901839,7.572,314.3,8.17,0.358,18.14,108.3732,20.72,22.11,27.89,0,110.9,13.17,21.54,276.3
"2009-05-20 00:43:00",901840,6.424,326.7,3.026,0.492,20.54,108.362,20.69,22.05,28.1,0,110.9,13.17,21.51,288.7
"2009-05-20 00:43:30",901841,6.981,309.3,8.99,0.736,20.25,108.3397,20.63,21.99,28.08,0,110.9,13.17,21.46,271.3
"2009-05-20 00:44:00",901842,6.888,296.1,4.524,0.654,20,108.3412,20.64,21.94,29.15,0,110.9,13.18,21.46,258.1
"2009-05-20 00:44:30",901843,8.96,285.5,4.053,0.764,20.4,108.3509,20.66,21.9,28.01,0,110.9,13.18,21.48,247.5
"2009-05-20 00:45:00",901844,8.59,285.1,5.364,0.678,20.31,108.3618,20.69,21.89,27.91,0,110.9,13.18,21.51,247.1
"2009-05-20 00:45:30",901845,7.608,278.6,6.509,0.773,20.44,108.3595,20.68,21.86,27.6,0,110.9,13.18,21.51,240.6
"2009-05-20 00:46:00",901846,8.15,291.1,7.801,1.034,20.11,108.3656,20.7,21.84,27.26,0,110.9,13.18,21.52,253.1
"2009-05-20 00:46:30",901847,7.856,296.5,6.146,0.585,20.14,108.3755,20.72,21.84,28.19,0,110.9,13.18,21.55,258.5
"2009-05-20 00:47:00",901848,8.15,294.4,3.238,0.415,20.06,108.3789,20.73,21.82,28.19,0,110.9,13.18,21.56,256.4
"2009-05-20 00:47:30",901849,7.559,291.4,2.182,0.404,19.96,108.3873,20.75,21.81,27.63,0,110.9,13.18,21.58,253.4
"2009-05-20 00:48:00",901850,6.847,297.2,3.861,0.318,20.07,108.3983,20.78,21.81,27.81,0,110.9,13.18,21.61,259.2
"2009-05-20 00:48:30",901851,6.818,301.3,3.035,0.301,20.07,108.4008,20.79,21.81,27.94,0,110.9,13.18,21.61,263.3
"2009-05-20 00:49:00",901852,6.595,301.9,2.967,0.117,20.09,108.4008,20.79,21.81,28.45,0,110.8,13.18,21.61,263.9
"2009-05-20 00:49:30",901853,6.639,301.5,4.368,0.209,20.16,108.4008,20.79,21.83,28.69,0,110.8,13.18,21.61,263.5
"2009-05-20 00:50:00",901854,6.062,303.5,2.268,0.153,20.16,108.4061,20.8,21.83,28.45,0,110.8,13.18,21.63,265.5
"2009-05-20 00:50:30",901855,6.096,304.4,1.965,0.234,20.35,108.4185,20.83,21.85,28.45,0,110.9,13.18,21.66,266.4
"2009-05-20 00:51:00",901856,5.751,301,1.893,0.217,20.69,108.4334,20.87,21.86,28.56,0,110.8,13.18,21.70,263.0
"2009-05-20 00:51:30",901857,5.465,307.2,4.356,0.266,20.44,108.4348,20.88,21.85,28.43,0,110.8,13.18,21.70,269.2
"2009-05-20 00:52:00",901858,5.554,316.1,2.39,0.404,20.21,108.4348,20.88,21.88,28.63,0,110.8,13.18,21.70,278.1
"2009-05-20 00:52:30",901859,5.944,313.3,1.52,0.408,20.16,108.4405,20.89,21.89,28.56,0,110.8,13.18,21.71,275.3
"2009-05-20 00:53:00",901860,4.888,308.4,3.284,0.22,19.96,108.4574,20.93,21.92,27.96,0,110.8,13.19,21.76,270.4
"2009-05-20 00:53:30",901861,5.567,320.3,6.615,0.873,19.84,108.4732,20.97,21.92,27.66,0,110.8,13.19,21.80,282.3
"2009-05-20 00:54:00",901862,5.209,317,4.611,0.63,19.95,108.4744,20.98,21.95,28.04,0,110.8,13.19,21.80,279.0
"2009-05-20 00:54:30",901863,3.903,308.6,1.997,0.217,20.02,108.4735,20.97,21.97,28.18,0,110.8,13.19,21.80,270.6
"2009-05-20 00:55:00",901864,4.783,311.7,2.864,0.319,19.96,108.4874,21.01,21.99,28.04,0,110.8,13.19,21.84,273.7
"2009-05-20 00:55:30",901865,4.445,309.7,1.784,0.232,19.71,108.4985,21.04,22.01,28.18,0,110.8,13.19,21.86,271.7
"2009-05-20 00:56:00",901866,3.771,305.5,4.816,0.146,19.78,108.51,21.07,22.02,28.19,0,110.8,13.19,21.89,267.5
"2009-05-20 00:56:30",901867,3.782,300.1,2.546,0.392,19.84,108.51,21.07,22.03,28.03,0,110.8,13.19,21.89,262.1
"2009-05-20 00:57:00",901868,4.13,301.8,5.829,0.21,19.89,108.513,21.08,22.04,27.81,0,110.8,13.19,21.90,263.8
"2009-05-20 00:57:30",901869,3.192,302.5,4.028,0.504,19.91,108.5157,21.08,22.06,27.57,0,110.8,13.19,21.91,264.5
"2009-05-20 00:58:00",901870,2.815,301.2,2.934,0.287,19.96,108.5294,21.12,22.08,26.77,0,110.8,13.19,21.94,263.2
"2009-05-20 00:58:30",901871,3.128,289.6,5.932,0.479,19.91,108.5527,21.18,22.1,26.2,0,110.8,13.19,22.00,251.6
"2009-05-20 00:59:00",901872,3.722,277.7,8.16,0.263,20,108.59,21.27,22.14,25.66,0,110.8,13.2,22.10,239.7
"2009-05-20 00:59:30",901873,3.469,274.3,10.38,0.532,19.76,108.6251,21.36,22.19,26.07,0,110.8,13.2,22.19,236.3
"2009-05-20 01:00:00",901874,2.794,288.6,6.476,0.151,19.74,108.6295,21.37,22.23,26.09,0,110.8,13.2,22.20,250.6
"2009-05-20 01:00:30",901875,3.19,293,5.919,0.245,19.71,108.6498,21.43,22.26,26.14,0,110.8,13.2,22.25,255.0
"2009-05-20 01:01:00",901876,3.882,284.1,2.531,0.192,19.76,108.6679,21.47,22.29,26.08,0,110.8,13.2,22.30,246.1
"2009-05-20 01:01:30",901877,3.86,288.7,7.919,0.205,19.71,108.6694,21.48,22.3,26.23,0,110.8,13.2,22.30,250.7
"2009-05-20 01:02:00",901878,3.489,302.2,7.897,0.551,19.66,108.6703,21.48,22.32,26.77,0,110.8,13.2,22.31,264.2
"2009-05-20 01:02:30",901879,2.523,293.8,5.263,0.369,19.67,108.6706,21.48,22.33,26.22,0,110.8,13.2,22.31,255.8
"2009-05-20 01:03:00",901880,3.451,277.4,9.78,0.447,19.65,108.6718,21.48,22.34,26.1,0,110.8,13.2,22.31,239.4
"2009-05-20 01:03:30",901881,5.204,284,4.289,0.376,19.59,108.6727,21.49,22.36,26.47,0,110.8,13.2,22.31,246.0
"2009-05-20 01:04:00",901882,5.29,284.9,8.13,0.308,19.58,108.6733,21.49,22.37,26.64,0,110.8,13.19,22.31,246.9
"2009-05-20 01:04:30",901883,4.746,293.2,7.125,0.725,19.52,108.6727,21.49,22.38,26.97,0,110.8,13.19,22.31,255.2
"2009-05-20 01:05:00",901884,5.097,308.6,7.648,0.483,19.5,108.6736,21.49,22.38,27.17,0,110.8,13.19,22.32,270.6
"2009-05-20 01:05:30",901885,3.626,297.9,14.77,0.645,19.5,108.6733,21.49,22.38,27.16,0,110.8,13.19,22.31,259.9
"2009-05-20 01:06:00",901886,2.773,288.8,12.89,0.711,19.5,108.6734,21.49,22.4,26.86,0,110.8,13.19,22.31,250.8
"2009-05-20 01:06:30",901887,4.201,286.8,9.26,0.414,19.4,108.6486,21.42,22.37,27,0,110.8,13.19,22.25,248.8
"2009-05-20 01:07:00",901888,4.714,290.8,3.463,0.419,19.53,108.6399,21.4,22.35,26.2,0,110.8,13.19,22.23,252.8
"2009-05-20 01:07:30",901889,4.433,287.4,5.759,0.283,19.53,108.6399,21.4,22.32,25.94,0,110.8,13.19,22.23,249.4
"2009-05-20 01:08:00",901890,4.386,294.9,5.535,0.251,19.49,108.6399,21.4,22.33,26.05,0,110.8,13.19,22.23,256.9
"2009-05-20 01:08:30",901891,4.325,291.4,3.458,0.164,19.5,108.6399,21.4,22.31,26.5,0,110.8,13.19,22.23,253.4
"2009-05-20 01:09:00",901892,4.31,288.6,3.785,0.261,19.45,108.6399,21.4,22.32,27.02,0,110.8,13.19,22.23,250.6
"2009-05-20 01:09:30",901893,4.183,289.9,3.865,0.34,19.44,108.6399,21.4,22.31,26.84,0,110.8,13.2,22.23,251.9
"2009-05-20 01:10:00",901894,4.307,293.1,6.194,0.239,19.43,108.6267,21.37,22.32,26.62,0,110.8,13.2,22.19,255.1
"2009-05-20 01:10:30",901895,4.261,294.7,2.566,0.196,19.45,108.6123,21.33,22.29,26.43,0,110.8,13.2,22.16,256.7
"2009-05-20 01:11:00",901896,4.41,295.9,2.54,0.244,19.42,108.6064,21.32,22.3,26.4,0,110.8,13.2,22.14,257.9
"2009-05-20 01:11:30",901897,4.203,294,4.287,0.373,19.32,108.6061,21.32,22.3,27.04,0,110.8,13.2,22.14,256.0
"2009-05-20 01:12:00",901898,3.108,295.3,4.969,0.478,19.24,108.6061,21.32,22.28,27.45,0,110.8,13.2,22.14,257.3
"2009-05-20 01:12:30",901899,3.277,297,8.55,0.832,19.21,108.6053,21.31,22.28,27.98,0,110.8,13.2,22.14,259.0
"2009-05-20 01:13:00",901900,1.735,315.4,7.931,0.471,19.18,108.5859,21.26,22.25,27.99,0,110.8,13.2,22.09,277.4
"2009-05-20 01:13:30",901901,3.198,324.2,7.511,0.461,19.26,108.5724,21.23,22.24,28.29,0,110.8,13.2,22.05,286.2
"2009-05-20 01:14:00",901902,3.246,317.3,11.05,0.7,19.32,108.5724,21.23,22.23,28.15,0,110.8,13.2,22.05,279.3
"2009-05-20 01:14:30",901903,2.707,348.7,17.27,0.933,19.42,108.5578,21.19,22.21,28.07,0,110.8,13.2,22.02,310.7
"2009-05-20 01:15:00",901904,3.512,20.73,6.141,1.007,19.49,108.5443,21.16,22.18,28.46,0,110.8,13.2,21.98,342.7
"2009-05-20 01:15:30",901905,0.97,358.7,20.82,0.587,19.45,108.5386,21.14,22.18,28.44,0,110.8,13.2,21.97,320.7
"2009-05-20 01:16:00",901906,1.046,65.79,77.3,0.685,19.53,108.5386,21.14,22.16,27.89,0,110.8,13.2,21.97,27.8
"2009-05-20 01:16:30",901907,1.64,81.7,11.69,0.511,19.59,108.5381,21.14,22.14,27.51,0,110.8,13.2,21.97,43.7
"2009-05-20 01:17:00",901908,2.019,69.9,12.67,0.524,19.61,108.5209,21.1,22.13,27.2,0,110.8,13.2,21.92,31.9
"2009-05-20 01:17:30",901909,2.062,136.8,17.24,0.837,19.39,108.5063,21.06,22.1,27.86,0,110.8,13.2,21.88,98.8
"2009-05-20 01:18:00",901910,0.304,50.68,40.34,0.295,19.59,108.5049,21.06,22.07,27.2,0,110.8,13.2,21.88,12.7
"2009-05-20 01:18:30",901911,0.931,0.829,9.91,0.262,19.55,108.5049,21.06,22.06,27.68,0,110.8,13.2,21.88,322.8
"2009-05-20 01:19:00",901912,0.849,49.11,24.81,0.391,19.51,108.5049,21.06,22.03,28.29,0,110.8,13.2,21.88,11.1
"2009-05-20 01:19:30",901913,1.628,94.5,12.06,0.432,19.56,108.4945,21.03,22.03,27.88,0,110.8,13.2,21.85,56.5
"2009-05-20 01:20:00",901914,1.553,78.81,7.952,0.472,19.41,108.479,20.99,22.02,26.91,0,110.8,13.2,21.81,40.8
"2009-05-20 01:20:30",901915,1.908,88.8,10.45,0.305,19.31,108.4723,20.97,22.01,26.55,0,110.8,13.21,21.80,50.8
"2009-05-20 01:21:00",901916,2.976,76.57,3.502,0.189,19.39,108.4711,20.97,22.01,26.35,0,110.8,13.21,21.79,38.6
"2009-05-20 01:21:30",901917,2.784,75.8,8.7,0.307,19.42,108.4711,20.97,21.99,26.53,0,110.8,13.21,21.79,37.8
"2009-05-20 01:22:00",901918,2.687,68.74,4.897,0.294,19.48,108.4711,20.97,21.96,26.93,0,110.8,13.21,21.79,30.7
"2009-05-20 01:22:30",901919,2.924,79.81,11.54,0.254,19.56,108.4711,20.97,21.96,26.66,0,110.8,13.21,21.79,41.8
"2009-05-20 01:23:00",901920,1.441,78.97,12.01,0.549,19.54,108.4711,20.97,21.96,26.74,0,110.8,13.21,21.79,41.0
"2009-05-20 01:23:30",901921,1.304,46.61,22.2,0.261,19.44,108.4714,20.97,21.95,27.32,0,110.8,13.21,21.79,8.6
"2009-05-20 01:24:00",901922,1.529,38.52,5.517,0.476,19.41,108.4711,20.97,21.95,28.03,0,110.8,13.21,21.79,0.5
"2009-05-20 01:24:30",901923,2.638,47.62,10.39,0.461,19.4,108.4714,20.97,21.96,27.97,0,110.8,13.21,21.79,9.6
"2009-05-20 01:25:00",901924,2.547,69.83,8.61,0.389,19.39,108.4693,20.96,21.94,27.95,0,110.8,13.21,21.79,31.8
"2009-05-20 01:25:30",901925,3.033,53.5,10.77,0.605,19.39,108.4581,20.94,21.95,28.04,0,110.8,13.21,21.76,15.5
"2009-05-20 01:26:00",901926,3.436,57.49,5.351,0.333,19.46,108.443,20.9,21.95,28.03,0,110.8,13.21,21.72,19.5
"2009-05-20 01:26:30",901927,3.202,51.46,3.43,0.197,19.44,108.4429,20.9,21.94,27.76,0,110.8,13.21,21.72,13.5
"2009-05-20 01:27:00",901928,2.827,50.99,3.496,0.24,19.49,108.4429,20.9,21.93,27.72,0,110.8,13.21,21.72,13.0
"2009-05-20 01:27:30",901929,2.295,63.49,8.56,0.353,19.48,108.4459,20.9,21.91,27.81,0,110.8,13.21,21.73,25.5
"2009-05-20 01:28:00",901930,2.024,75.37,8.48,0.33,19.49,108.4472,20.91,21.92,27.89,0,110.8,13.21,21.73,37.4
"2009-05-20 01:28:30",901931,1.264,51.24,5.796,0.143,19.45,108.4475,20.91,21.91,27.17,0,110.8,13.21,21.73,13.2
"2009-05-20 01:29:00",901932,1.203,52.6,7.173,0.208,19.5,108.4483,20.91,21.91,27.07,0,110.8,13.21,21.73,14.6
"2009-05-20 01:29:30",901933,1.386,59.9,11.77,0.296,19.45,108.4459,20.9,21.89,27.3,0,110.8,13.21,21.73,21.9
"2009-05-20 01:30:00",901934,2.69,42.77,9.76,0.41,19.45,108.4356,20.88,21.89,28.03,0,110.8,13.21,21.70,4.8
"2009-05-20 01:30:30",901935,2.531,37.43,4.878,0.261,19.48,108.4319,20.87,21.88,27.94,0,110.8,13.21,21.69,359.4
"2009-05-20 01:31:00",901936,3.02,45.02,4.565,0.297,19.43,108.4299,20.86,21.89,27.97,0,110.8,13.22,21.69,7.0
"2009-05-20 01:31:30",901937,2.879,42.3,3.944,0.371,19.46,108.4286,20.86,21.87,28.02,0,110.8,13.22,21.68,4.3
"2009-05-20 01:32:00",901938,2.536,56.18,7.595,0.264,19.49,108.4293,20.86,21.86,27.65,0,110.8,13.22,21.69,18.2
"2009-05-20 01:32:30",901939,1.897,55.79,7.369,0.485,19.45,108.4299,20.86,21.87,27.23,0,110.8,13.22,21.69,17.8
"2009-05-20 01:33:00",901940,1.646,47,4.134,0.235,19.46,108.4308,20.86,21.85,27.13,0,110.8,13.22,21.69,9.0
"2009-05-20 01:33:30",901941,1.309,44.13,7.738,0.14,19.5,108.4299,20.86,21.86,26.96,0,110.8,13.22,21.69,6.1
"2009-05-20 01:34:00",901942,1.102,28.55,8.12,0.296,19.44,108.4314,20.87,21.84,27.29,0,110.8,13.22,21.69,350.5
"2009-05-20 01:34:30",901943,1.178,23.52,16.84,0.386,19.41,108.4311,20.87,21.85,27.8,0,110.8,13.22,21.69,345.5
"2009-05-20 01:35:00",901944,0.655,338.6,28.72,0.302,19.4,108.4317,20.87,21.84,27.73,0,110.8,13.22,21.69,300.6
"2009-05-20 01:35:30",901945,0.762,325.4,11.2,0.272,19.3,108.4314,20.87,21.84,27.89,0,110.8,13.22,21.69,287.4
"2009-05-20 01:36:00",901946,1.327,11.95,15.69,0.46,19.39,108.4314,20.87,21.83,27.56,0,110.8,13.22,21.69,334.0
"2009-05-20 01:36:30",901947,1.811,17.86,9.95,0.23,19.43,108.427,20.86,21.83,27.44,0,110.8,13.22,21.68,339.9
"2009-05-20 01:37:00",901948,2.615,26.25,5.245,0.141,19.45,108.4145,20.82,21.83,27.33,0,110.8,13.22,21.65,348.2
"2009-05-20 01:37:30",901949,2.815,17.53,5.466,0.213,19.4,108.4023,20.79,21.83,27.41,0,110.8,13.22,21.62,339.5
"2009-05-20 01:38:00",901950,2.879,8.1,8.67,0.222,19.35,108.401,20.79,21.81,27.49,0,110.8,13.21,21.61,330.1
"2009-05-20 01:38:30",901951,2.532,8.69,6.509,0.339,19.38,108.401,20.79,21.81,27.55,0,110.8,13.21,21.61,330.7
"2009-05-20 01:39:00",901952,1.652,355.2,11.92,0.2,19.39,108.4022,20.79,21.8,27.63,0,110.8,13.21,21.62,317.2
"2009-05-20 01:39:30",901953,1.627,355.7,5.144,0.128,19.5,108.4019,20.79,21.79,27.67,0,110.8,13.21,21.62,317.7
"2009-05-20 01:40:00",901954,1.145,0.261,5.218,0.135,19.53,108.3933,20.77,21.78,27.5,0,110.8,13.21,21.59,322.3
"2009-05-20 01:40:30",901955,0.911,22.64,4.751,0.118,19.47,108.3816,20.74,21.77,27.7,0,110.8,13.21,21.56,344.6
"2009-05-20 01:41:00",901956,0.5,20.46,8.48,0.191,19.41,108.3754,20.72,21.76,27.97,0,110.8,13.21,21.55,342.5
"2009-05-20 01:41:30",901957,0.601,41.47,10.09,0.118,19.51,108.3732,20.72,21.74,27.28,0,110.8,13.21,21.54,3.5
"2009-05-20 01:42:00",901958,0.953,65.25,14.59,0.183,19.51,108.3729,20.72,21.74,27.39,0,110.8,13.21,21.54,27.2
"2009-05-20 01:42:30",901959,1.379,24.52,7.217,0.375,19.51,108.3727,20.72,21.73,27.67,0,110.8,13.21,21.54,346.5
"2009-05-20 01:43:00",901960,2.833,37.54,5.51,0.777,19.57,108.3727,20.72,21.72,27.93,0,110.8,13.22,21.54,359.5
"2009-05-20 01:43:30",901961,2.984,36.98,3.354,0.239,19.6,108.3727,20.72,21.73,27.76,0,110.8,13.22,21.54,359.0
"2009-05-20 01:44:00",901962,2.37,30.12,7.506,0.291,19.59,108.3727,20.72,21.71,27.67,0,110.8,13.22,21.54,352.1
"2009-05-20 01:44:30",901963,1.657,32.12,6.427,0.302,19.54,108.3727,20.72,21.7,27.58,0,110.8,13.22,21.54,354.1
"2009-05-20 01:45:00",901964,1.871,64.67,5.836,0.29,19.57,108.3727,20.72,21.7,27.14,0,110.8,13.22,21.54,26.7
"2009-05-20 01:45:30",901965,1.914,68.63,3.281,0.102,19.55,108.3727,20.72,21.69,27.08,0,110.8,13.22,21.54,30.6
"2009-05-20 01:46:00",901966,1.695,70.94,7.872,0.119,19.51,108.3727,20.72,21.71,27.02,0,110.8,13.22,21.54,32.9
"2009-05-20 01:46:30",901967,1.096,60.56,8.22,0.276,19.54,108.3727,20.72,21.71,27.24,0,110.8,13.22,21.54,22.6
"2009-05-20 01:47:00",901968,0.857,50.61,9.02,0.247,19.6,108.3727,20.72,21.7,27.85,0,110.8,13.22,21.54,12.6
"2009-05-20 01:47:30",901969,0.725,70.22,13.49,0.243,19.55,108.3727,20.72,21.7,27.84,0,110.8,13.22,21.54,32.2
"2009-05-20 01:48:00",901970,0.796,49.65,5.888,0.077,19.58,108.3727,20.72,21.7,27.99,0,110.8,13.22,21.54,11.7